START_TIME,STEP,MOV.,M35,t_acc.,PL05,t_acc.,PL06,t_acc.,PL07,t_acc.
1979-07-28 21:00:23.060 ,0,0,0.,4.8,10.,4.8,1.,4.8,0.,4.8
1979-07-28 21:00:27.860 ,0,0,0.,4.8,7.,4.8,2.,4.8,0.,4.8
1979-07-28 21:00:32.660 ,0,0,0.,4.8,10.,4.8,0.,4.8,0.,4.8
1979-07-28 21:00:37.460 ,0,0,0.,4.8,13.,4.8,2.,4.8,0.,4.8
1979-07-28 21:00:42.260 ,0,0,0.,4.8,11.,4.8,1.,4.8,0.,4.8
1979-07-28 21:00:47.060 ,0,0,0.,4.8,7.,4.8,1.,4.8,0.,4.8
1979-07-28 21:00:51.860 ,0,0,0.,4.8,13.,4.8,0.,4.8,1.,4.8
1979-07-28 21:00:56.660 ,0,0,0.,4.8,16.,4.8,1.,4.8,2.,4.8
1979-07-28 21:01:01.460 ,0,0,0.,4.8,10.,4.8,1.,4.8,0.,4.8
1979-07-28 21:01:06.260 ,0,0,0.,4.8,12.,4.8,1.,4.8,0.,4.8
1979-07-28 21:01:11.060 ,0,0,0.,4.8,13.,4.8,0.,4.8,0.,4.8
1979-07-28 21:01:15.860 ,0,0,0.,4.8,17.,4.8,2.,4.8,1.,4.8
1979-07-28 21:01:20.660 ,0,0,0.,4.8,3.,4.8,3.,4.8,0.,4.8
1979-07-28 21:01:25.460 ,0,0,0.,4.8,8.,4.8,0.,4.8,0.,4.8
1979-07-28 21:01:30.260 ,0,0,0.,4.8,12.,4.8,0.,4.8,0.,4.8
1979-07-28 21:01:35.060 ,1,0,0.,4.8,12.,4.8,2.,4.8,0.,4.8
1979-07-28 21:01:39.860 ,1,0,0.,4.8,8.,4.8,1.,4.8,0.,4.8
1979-07-28 21:01:44.660 ,1,0,0.,4.8,26.,4.8,6.,4.8,0.,4.8
1979-07-28 21:01:49.460 ,1,0,0.,4.8,24.,4.8,3.,4.8,0.,4.8
1979-07-28 21:01:54.260 ,1,0,1.,4.8,18.,4.8,4.,4.8,1.,4.8
1979-07-28 21:01:59.060 ,1,0,0.,4.8,22.,4.8,3.,4.8,0.,4.8
1979-07-28 21:02:03.860 ,1,0,0.,4.8,29.,4.8,3.,4.8,1.,4.8
1979-07-28 21:02:08.660 ,1,0,0.,4.8,20.,4.8,4.,4.8,0.,4.8
1979-07-28 21:02:13.460 ,1,0,0.,4.8,28.,4.8,5.,4.8,1.,4.8
1979-07-28 21:02:18.260 ,1,0,0.,4.8,20.,4.8,0.,4.8,0.,4.8
1979-07-28 21:02:23.060 ,2,0,0.,4.8,19.,4.8,3.,4.8,0.,4.8
1979-07-28 21:02:27.860 ,2,0,0.,4.8,24.,4.8,4.,4.8,0.,4.8
1979-07-28 21:02:32.660 ,2,0,0.,4.8,48.,4.8,7.,4.8,2.,4.8
1979-07-28 21:02:37.460 ,2,0,0.,4.8,45.,4.8,6.,4.8,2.,4.8
1979-07-28 21:02:42.260 ,2,0,0.,4.8,47.,4.8,6.,4.8,1.,4.8
1979-07-28 21:02:47.060 ,2,0,0.,4.8,38.,4.8,7.,4.8,0.,4.8
1979-07-28 21:02:51.860 ,2,0,0.,4.8,53.,4.8,9.,4.8,2.,4.8
1979-07-28 21:02:56.660 ,2,0,0.,4.8,54.,4.8,8.,4.8,0.,4.8
1979-07-28 21:03:01.460 ,2,0,0.,4.8,52.,4.8,4.,4.8,1.,4.8
1979-07-28 21:03:06.260 ,2,0,0.,4.8,92.,4.8,3.,4.8,1.,4.8
1979-07-28 21:03:11.060 ,3,0,0.,4.8,48.,4.8,7.,4.8,1.,4.8
1979-07-28 21:03:15.860 ,3,0,0.,4.8,59.,4.8,4.,4.8,0.,4.8
1979-07-28 21:03:20.660 ,3,0,0.,4.8,40.,4.8,2.,4.8,0.,4.8
1979-07-28 21:03:25.460 ,3,0,0.,4.8,47.,4.8,0.,4.8,0.,4.8
1979-07-28 21:03:30.260 ,3,0,0.,4.8,40.,4.8,7.,4.8,2.,4.8
1979-07-28 21:03:35.060 ,3,0,0.,4.8,49.,4.8,4.,4.8,1.,4.8
1979-07-28 21:03:39.860 ,3,0,0.,4.8,35.,4.8,9.,4.8,1.,4.8
1979-07-28 21:03:44.660 ,3,0,0.,4.8,39.,4.8,4.,4.8,1.,4.8
1979-07-28 21:03:49.460 ,3,0,0.,4.8,42.,4.8,6.,4.8,0.,4.8
1979-07-28 21:03:54.260 ,3,0,0.,4.8,40.,4.8,2.,4.8,1.,4.8
1979-07-28 21:03:59.060 ,4,0,0.,4.8,39.,4.8,5.,4.8,0.,4.8
1979-07-28 21:04:03.860 ,4,0,0.,4.8,40.,4.8,10.,4.8,1.,4.8
1979-07-28 21:04:08.660 ,4,0,0.,4.8,8.,4.8,1.,4.8,0.,4.8
1979-07-28 21:04:13.460 ,4,0,0.,4.8,12.,4.8,2.,4.8,2.,4.8
1979-07-28 21:04:18.260 ,4,0,0.,4.8,11.,4.8,2.,4.8,1.,4.8
1979-07-28 21:04:23.060 ,4,0,0.,4.8,12.,4.8,0.,4.8,0.,4.8
1979-07-28 21:04:27.860 ,4,0,0.,4.8,14.,4.8,1.,4.8,0.,4.8
1979-07-28 21:04:32.660 ,4,0,0.,4.8,13.,4.8,1.,4.8,0.,4.8
1979-07-28 21:04:37.460 ,4,0,0.,4.8,11.,4.8,1.,4.8,1.,4.8
1979-07-28 21:04:42.260 ,4,0,0.,4.8,5.,4.8,0.,4.8,0.,4.8
1979-07-28 21:04:47.060 ,5,0,0.,4.8,9.,4.8,2.,4.8,0.,4.8
1979-07-28 21:04:51.860 ,5,0,0.,4.8,15.,4.8,2.,4.8,1.,4.8
1979-07-28 21:04:56.660 ,5,0,0.,4.8,9.,4.8,2.,4.8,0.,4.8
1979-07-28 21:05:01.460 ,5,0,0.,4.8,8.,4.8,2.,4.8,0.,4.8
1979-07-28 21:05:06.260 ,5,0,0.,4.8,5.,4.8,0.,4.8,1.,4.8
1979-07-28 21:05:11.060 ,5,0,0.,4.8,9.,4.8,1.,4.8,0.,4.8
1979-07-28 21:05:15.860 ,5,0,0.,4.8,13.,4.8,3.,4.8,0.,4.8
1979-07-28 21:05:20.660 ,5,0,0.,4.8,10.,4.8,0.,4.8,0.,4.8
1979-07-28 21:05:25.460 ,5,0,0.,4.8,12.,4.8,0.,4.8,1.,4.8
1979-07-28 21:05:30.260 ,5,0,0.,4.8,12.,4.8,1.,4.8,1.,4.8
1979-07-28 21:05:35.060 ,6,0,0.,4.8,13.,4.8,0.,4.8,0.,4.8
1979-07-28 21:05:39.860 ,6,0,0.,4.8,13.,4.8,0.,4.8,0.,4.8
1979-07-28 21:05:44.660 ,6,0,0.,4.8,7.,4.8,1.,4.8,2.,4.8
1979-07-28 21:05:49.460 ,6,0,0.,4.8,9.,4.8,1.,4.8,2.,4.8
1979-07-28 21:05:54.260 ,6,0,0.,4.8,14.,4.8,2.,4.8,0.,4.8
1979-07-28 21:05:59.060 ,6,0,0.,4.8,16.,4.8,1.,4.8,1.,4.8
1979-07-28 21:06:03.860 ,6,0,0.,4.8,10.,4.8,0.,4.8,0.,4.8
1979-07-28 21:06:08.660 ,6,0,0.,4.8,8.,4.8,1.,4.8,0.,4.8
1979-07-28 21:06:13.460 ,6,0,0.,4.8,10.,4.8,1.,4.8,1.,4.8
1979-07-28 21:06:18.260 ,6,0,0.,4.8,10.,4.8,1.,4.8,0.,4.8
1979-07-28 21:06:23.060 ,7,0,0.,4.8,12.,4.8,2.,4.8,0.,4.8
1979-07-28 21:06:27.860 ,7,0,0.,4.8,13.,4.8,2.,4.8,0.,4.8
1979-07-28 21:06:32.660 ,7,0,0.,4.8,0.,4.8,0.,4.8,1.,4.8
1979-07-28 21:06:37.460 ,7,0,0.,4.8,1.,4.8,0.,4.8,0.,4.8
1979-07-28 21:06:42.260 ,7,0,0.,4.8,1.,4.8,0.,4.8,0.,4.8
1979-07-28 21:06:47.060 ,7,0,0.,4.8,2.,4.8,0.,4.8,0.,4.8
1979-07-28 21:06:51.860 ,7,0,0.,4.8,1.,4.8,1.,4.8,0.,4.8
1979-07-28 21:06:56.660 ,7,0,0.,4.8,0.,4.8,1.,4.8,0.,4.8
1979-07-28 21:07:01.460 ,7,0,0.,4.8,1.,4.8,0.,4.8,0.,4.8
1979-07-28 21:07:06.260 ,7,0,0.,4.8,0.,4.8,0.,4.8,0.,4.8
1979-07-28 21:07:11.060 ,3,1,0.,4.8,5.,4.8,0.,4.8,1.,4.8
1979-07-28 21:07:15.860 ,3,1,0.,4.8,13.,4.8,0.,4.8,2.,4.8
1979-07-28 21:07:20.660 ,3,1,0.,4.8,12.,4.8,1.,4.8,0.,4.8
1979-07-28 21:07:25.460 ,3,1,0.,4.8,20.,4.8,3.,4.8,1.,4.8
1979-07-28 21:07:30.260 ,3,1,1.,4.8,41.,4.8,3.,4.8,2.,4.8
1979-07-28 21:07:35.060 ,0,1,0.,4.8,45.,4.8,4.,4.8,1.,4.8
1979-07-28 21:07:39.860 ,0,1,0.,4.8,63.,4.8,6.,4.8,6.,4.8
1979-07-28 21:07:44.660 ,0,1,0.,4.8,21.,4.8,2.,4.8,0.,4.8
1979-07-28 21:07:49.460 ,0,1,0.,4.8,8.,4.8,2.,4.8,0.,4.8
1979-07-28 21:07:54.260 ,0,1,0.,4.8,5.,4.8,2.,4.8,0.,4.8
1979-07-28 21:07:59.060 ,4,1,0.,4.8,12.,4.8,2.,4.8,1.,4.8
1979-07-28 21:08:03.860 ,4,1,0.,4.8,25.,4.8,0.,4.8,1.,4.8
1979-07-28 21:08:08.660 ,4,1,0.,4.8,72.,4.8,5.,4.8,1.,4.8
1979-07-28 21:08:13.460 ,4,1,0.,4.8,66.,4.8,2.,4.8,2.,4.8
1979-07-28 21:08:18.260 ,4,1,0.,4.8,28.,4.8,4.,4.8,0.,4.8
1979-07-28 21:08:23.060 ,7,1,0.,4.8,20.,4.8,3.,4.8,1.,4.8
1979-07-28 21:08:27.860 ,7,1,0.,4.8,11.,4.8,1.,4.8,2.,4.8
1979-07-28 21:08:32.660 ,7,1,0.,4.8,17.,4.8,2.,4.8,0.,4.8
1979-07-28 21:08:37.460 ,7,1,0.,4.8,0.,4.8,0.,4.8,0.,4.8
1979-07-28 21:08:42.260 ,7,1,0.,4.8,0.,4.8,0.,4.8,0.,4.8
1979-07-28 21:08:47.060 ,3,1,0.,4.8,5.,4.8,0.,4.8,0.,4.8
1979-07-28 21:08:51.860 ,3,1,0.,4.8,12.,4.8,1.,4.8,0.,4.8
1979-07-28 21:08:56.660 ,3,1,0.,4.8,11.,4.8,0.,4.8,0.,4.8
1979-07-28 21:09:01.460 ,3,1,0.,4.8,8.,4.8,0.,4.8,0.,4.8
1979-07-28 21:09:06.260 ,3,1,0.,4.8,26.,4.8,3.,4.8,0.,4.8
1979-07-28 21:09:11.060 ,0,1,0.,4.8,42.,4.8,7.,4.8,0.,4.8
1979-07-28 21:09:15.860 ,0,1,0.,4.8,60.,4.8,7.,4.8,4.,4.8
1979-07-28 21:09:20.660 ,0,1,0.,4.8,25.,4.8,3.,4.8,1.,4.8
1979-07-28 21:09:25.460 ,0,1,0.,4.8,11.,4.8,0.,4.8,0.,4.8
1979-07-28 21:09:30.260 ,0,1,0.,4.8,15.,4.8,1.,4.8,1.,4.8
1979-07-28 21:09:35.060 ,4,1,0.,4.8,10.,4.8,1.,4.8,0.,4.8
1979-07-28 21:09:39.860 ,4,1,0.,4.8,22.,4.8,2.,4.8,0.,4.8
1979-07-28 21:09:44.660 ,4,1,0.,4.8,63.,4.8,5.,4.8,0.,4.8
1979-07-28 21:09:49.460 ,4,1,0.,4.8,66.,4.8,7.,4.8,0.,4.8
1979-07-28 21:09:54.260 ,4,1,0.,4.8,37.,4.8,5.,4.8,1.,4.8
1979-07-28 21:09:59.060 ,7,1,0.,4.8,24.,4.8,0.,4.8,0.,4.8
1979-07-28 21:10:03.860 ,7,1,0.,4.8,8.,4.8,2.,4.8,0.,4.8
1979-07-28 21:10:08.660 ,7,1,0.,4.8,14.,4.8,0.,4.8,0.,4.8
1979-07-28 21:10:13.460 ,7,1,0.,4.8,1.,4.8,1.,4.8,0.,4.8
1979-07-28 21:10:18.260 ,7,1,0.,4.8,0.,4.8,0.,4.8,0.,4.8
1979-07-28 21:10:23.060 ,3,1,0.,4.8,3.,4.8,1.,4.8,0.,4.8
1979-07-28 21:10:27.860 ,3,1,0.,4.8,17.,4.8,3.,4.8,1.,4.8
1979-07-28 21:10:32.660 ,3,1,0.,4.8,15.,4.8,2.,4.8,0.,4.8
1979-07-28 21:10:37.460 ,3,1,0.,4.8,11.,4.8,4.,4.8,0.,4.8
1979-07-28 21:10:42.260 ,3,1,0.,4.8,35.,4.8,5.,4.8,0.,4.8
1979-07-28 21:10:47.060 ,0,1,0.,4.8,61.,4.8,2.,4.8,1.,4.8
1979-07-28 21:10:51.860 ,0,1,0.,4.8,72.,4.8,6.,4.8,1.,4.8
1979-07-28 21:10:56.660 ,0,1,0.,4.8,21.,4.8,2.,4.8,3.,4.8
1979-07-28 21:11:01.460 ,0,1,0.,4.8,14.,4.8,0.,4.8,0.,4.8
1979-07-28 21:11:06.260 ,0,1,0.,4.8,14.,4.8,2.,4.8,0.,4.8
1979-07-28 21:11:11.060 ,4,1,0.,4.8,29.,4.8,3.,4.8,0.,4.8
1979-07-28 21:11:15.860 ,4,1,0.,4.8,29.,4.8,1.,4.8,0.,4.8
1979-07-28 21:11:20.660 ,4,1,0.,4.8,76.,4.8,6.,4.8,3.,4.8
1979-07-28 21:11:25.460 ,4,1,0.,4.8,51.,4.8,8.,4.8,2.,4.8
1979-07-28 21:11:30.260 ,4,1,0.,4.8,35.,4.8,4.,4.8,2.,4.8
1979-07-28 21:11:35.060 ,7,1,0.,4.8,15.,4.8,1.,4.8,1.,4.8
1979-07-28 21:11:39.860 ,7,1,0.,4.8,9.,4.8,1.,4.8,0.,4.8
1979-07-28 21:11:44.660 ,7,1,0.,4.8,13.,4.8,2.,4.8,0.,4.8
1979-07-28 21:11:49.460 ,7,1,0.,4.8,2.,4.8,0.,4.8,0.,4.8
1979-07-28 21:11:54.260 ,7,1,0.,4.8,2.,4.8,0.,4.8,1.,4.8
1979-07-28 21:11:59.060 ,3,1,0.,4.8,4.,4.8,1.,4.8,0.,4.8
1979-07-28 21:12:03.860 ,3,1,0.,4.8,11.,4.8,2.,4.8,0.,4.8
1979-07-28 21:12:08.660 ,3,1,0.,4.8,11.,4.8,2.,4.8,1.,4.8
1979-07-28 21:12:13.460 ,3,1,0.,4.8,10.,4.8,1.,4.8,0.,4.8
1979-07-28 21:12:18.260 ,3,1,0.,4.8,48.,4.8,4.,4.8,1.,4.8
1979-07-28 21:12:23.060 ,0,1,0.,4.8,64.,4.8,5.,4.8,1.,4.8
1979-07-28 21:12:27.860 ,0,1,0.,4.8,82.,4.8,6.,4.8,3.,4.8
1979-07-28 21:12:32.660 ,0,1,0.,4.8,32.,4.8,2.,4.8,0.,4.8
1979-07-28 21:12:37.460 ,0,1,0.,4.8,9.,4.8,0.,4.8,0.,4.8
1979-07-28 21:12:42.260 ,0,1,0.,4.8,13.,4.8,2.,4.8,0.,4.8
1979-07-28 21:12:47.060 ,4,1,0.,4.8,18.,4.8,1.,4.8,0.,4.8
1979-07-28 21:12:51.860 ,4,1,0.,4.8,19.,4.8,3.,4.8,1.,4.8
1979-07-28 21:12:56.660 ,4,1,0.,4.8,90.,4.8,10.,4.8,4.,4.8
1979-07-28 21:13:01.460 ,4,1,0.,4.8,70.,4.8,5.,4.8,1.,4.8
1979-07-28 21:13:06.260 ,4,1,0.,4.8,36.,4.8,2.,4.8,0.,4.8
1979-07-28 21:13:11.060 ,7,1,1.,4.8,19.,4.8,3.,4.8,2.,4.8
1979-07-28 21:13:15.860 ,7,1,0.,4.8,11.,4.8,1.,4.8,0.,4.8
1979-07-28 21:13:20.660 ,7,1,0.,4.8,5.,4.8,1.,4.8,1.,4.8
1979-07-28 21:13:25.460 ,7,1,0.,4.8,4.,4.8,0.,4.8,0.,4.8
1979-07-28 21:13:30.260 ,7,1,0.,4.8,0.,4.8,0.,4.8,0.,4.8
1979-07-28 21:13:35.060 ,3,1,0.,4.8,4.,4.8,0.,4.8,0.,4.8
1979-07-28 21:13:39.860 ,3,1,1.,4.8,12.,4.8,1.,4.8,2.,4.8
1979-07-28 21:13:44.660 ,3,1,0.,4.8,18.,4.8,1.,4.8,0.,4.8
1979-07-28 21:13:49.460 ,3,1,0.,4.8,19.,4.8,2.,4.8,0.,4.8
1979-07-28 21:13:54.260 ,3,1,1.,4.8,45.,4.8,4.,4.8,0.,4.8
1979-07-28 21:13:59.060 ,0,1,0.,4.8,56.,4.8,6.,4.8,1.,4.8
1979-07-28 21:14:03.860 ,0,1,0.,4.8,72.,4.8,16.,4.8,0.,4.8
1979-07-28 21:14:08.660 ,0,1,0.,4.8,16.,4.8,5.,4.8,2.,4.8
1979-07-28 21:14:13.460 ,0,1,0.,4.8,14.,4.8,2.,4.8,0.,4.8
1979-07-28 21:14:18.260 ,0,1,0.,4.8,17.,4.8,0.,4.8,0.,4.8
1979-07-28 21:14:23.060 ,0,0,0.,4.8,21.,4.8,2.,4.8,0.,4.8
1979-07-28 21:14:27.860 ,0,0,0.,4.8,24.,4.8,7.,4.8,0.,4.8
1979-07-28 21:14:32.660 ,0,0,0.,4.8,76.,4.8,7.,4.8,1.,4.8
1979-07-28 21:14:37.460 ,0,0,0.,4.8,64.,4.8,8.,4.8,1.,4.8
1979-07-28 21:14:42.260 ,0,0,,0,,0,,0,,0
1979-07-28 21:14:47.060 ,0,0,0.,4.8,15.,4.8,4.,4.8,0.,4.8
1979-07-28 21:14:51.860 ,0,0,0.,4.8,19.,4.8,0.,4.8,2.,4.8
1979-07-28 21:14:56.660 ,0,0,0.,4.8,9.,4.8,2.,4.8,0.,4.8
1979-07-28 21:15:01.460 ,0,0,0.,4.8,1.,4.8,1.,4.8,0.,4.8
1979-07-28 21:15:06.260 ,0,0,0.,4.8,0.,4.8,0.,4.8,0.,4.8
1979-07-28 21:15:11.060 ,3,1,0.,4.8,1.,4.8,1.,4.8,0.,4.8
1979-07-28 21:15:15.860 ,3,1,0.,4.8,18.,4.8,3.,4.8,0.,4.8
1979-07-28 21:15:20.660 ,3,1,0.,4.8,13.,4.8,0.,4.8,1.,4.8
1979-07-28 21:15:25.460 ,3,1,0.,4.8,13.,4.8,4.,4.8,0.,4.8
1979-07-28 21:15:30.260 ,3,1,0.,4.8,35.,4.8,5.,4.8,2.,4.8
1979-07-28 21:15:35.060 ,0,1,0.,4.8,59.,4.8,3.,4.8,0.,4.8
1979-07-28 21:15:39.860 ,0,1,0.,4.8,74.,4.8,5.,4.8,0.,4.8
1979-07-28 21:15:44.660 ,0,1,0.,4.8,36.,4.8,3.,4.8,0.,4.8
1979-07-28 21:15:49.460 ,0,1,0.,4.8,13.,4.8,1.,4.8,0.,4.8
1979-07-28 21:15:54.260 ,0,1,0.,4.8,14.,4.8,2.,4.8,0.,4.8
1979-07-28 21:15:59.060 ,4,1,0.,4.8,15.,4.8,1.,4.8,0.,4.8
1979-07-28 21:16:03.860 ,4,1,0.,4.8,28.,4.8,1.,4.8,1.,4.8
1979-07-28 21:16:08.660 ,4,1,0.,4.8,74.,4.8,8.,4.8,3.,4.8
1979-07-28 21:16:13.460 ,4,1,1.,4.8,66.,4.8,7.,4.8,1.,4.8
1979-07-28 21:16:18.260 ,4,1,0.,4.8,40.,4.8,3.,4.8,0.,4.8
1979-07-28 21:16:23.060 ,7,1,0.,4.8,17.,4.8,2.,4.8,0.,4.8
1979-07-28 21:16:27.860 ,7,1,0.,4.8,15.,4.8,2.,4.8,0.,4.8
1979-07-28 21:16:32.660 ,7,1,0.,4.8,24.,4.8,3.,4.8,2.,4.8
1979-07-28 21:16:37.460 ,7,1,0.,4.8,5.,4.8,0.,4.8,0.,4.8
1979-07-28 21:16:42.260 ,7,1,0.,4.8,0.,4.8,0.,4.8,0.,4.8
1979-07-28 21:16:47.060 ,3,1,0.,4.8,5.,4.8,1.,4.8,0.,4.8
1979-07-28 21:16:51.860 ,3,1,0.,4.8,11.,4.8,1.,4.8,0.,4.8
1979-07-28 21:16:56.660 ,3,1,0.,4.8,21.,4.8,1.,4.8,1.,4.8
1979-07-28 21:17:01.460 ,3,1,0.,4.8,17.,4.8,2.,4.8,1.,4.8
1979-07-28 21:17:06.260 ,3,1,0.,4.8,44.,4.8,5.,4.8,0.,4.8
1979-07-28 21:17:11.060 ,0,1,0.,4.8,66.,4.8,7.,4.8,1.,4.8
1979-07-28 21:17:15.860 ,0,1,1.,4.8,76.,4.8,13.,4.8,1.,4.8
1979-07-28 21:17:20.660 ,0,1,0.,4.8,19.,4.8,1.,4.8,1.,4.8
1979-07-28 21:17:25.460 ,0,1,0.,4.8,18.,4.8,2.,4.8,0.,4.8
1979-07-28 21:17:30.260 ,0,1,0.,4.8,14.,4.8,1.,4.8,3.,4.8
1979-07-28 21:17:35.060 ,0,0,0.,4.8,15.,4.8,2.,4.8,1.,4.8
1979-07-28 21:17:39.860 ,0,0,0.,4.8,28.,4.8,3.,4.8,2.,4.8
1979-07-28 21:17:44.660 ,0,0,0.,4.8,90.,4.8,13.,4.8,1.,4.8
1979-07-28 21:17:49.460 ,0,0,0.,4.8,52.,4.8,6.,4.8,0.,4.8
1979-07-28 21:17:54.260 ,0,0,0.,4.8,45.,4.8,1.,4.8,0.,4.8
1979-07-28 21:17:59.060 ,0,0,0.,4.8,16.,4.8,2.,4.8,0.,4.8
1979-07-28 21:18:03.860 ,0,0,0.,4.8,16.,4.8,2.,4.8,0.,4.8
1979-07-28 21:18:08.660 ,0,0,0.,4.8,15.,4.8,2.,4.8,0.,4.8
1979-07-28 21:18:13.460 ,0,0,0.,4.8,6.,4.8,1.,4.8,0.,4.8
1979-07-28 21:18:18.260 ,0,0,0.,4.8,2.,4.8,0.,4.8,0.,4.8
1979-07-28 21:18:23.060 ,5,0,0.,4.8,3.,4.8,1.,4.8,0.,4.8
1979-07-28 21:18:27.860 ,5,0,0.,4.8,13.,4.8,2.,4.8,0.,4.8
1979-07-28 21:18:32.660 ,5,0,0.,4.8,19.,4.8,7.,4.8,1.,4.8
1979-07-28 21:18:37.460 ,5,0,0.,4.8,15.,4.8,5.,4.8,0.,4.8
1979-07-28 21:18:42.260 ,5,0,0.,4.8,21.,4.8,2.,4.8,1.,4.8
1979-07-28 21:18:47.060 ,5,0,0.,4.8,18.,4.8,4.,4.8,1.,4.8
1979-07-28 21:18:51.860 ,5,0,0.,4.8,18.,4.8,3.,4.8,1.,4.8
1979-07-28 21:18:56.660 ,5,0,0.,4.8,17.,4.8,2.,4.8,1.,4.8
1979-07-28 21:19:01.460 ,5,0,0.,4.8,18.,4.8,1.,4.8,1.,4.8
1979-07-28 21:19:06.260 ,5,0,0.,4.8,18.,4.8,0.,4.8,1.,4.8
1979-07-28 21:19:11.060 ,4,0,0.,4.8,20.,4.8,1.,4.8,1.,4.8
1979-07-28 21:19:15.860 ,4,0,0.,4.8,17.,4.8,3.,4.8,1.,4.8
1979-07-28 21:19:20.660 ,4,0,0.,4.8,16.,4.8,2.,4.8,1.,4.8
1979-07-28 21:19:25.460 ,4,0,0.,4.8,10.,4.8,2.,4.8,0.,4.8
1979-07-28 21:19:30.260 ,4,0,0.,4.8,17.,4.8,2.,4.8,1.,4.8
1979-07-28 21:19:35.060 ,4,0,0.,4.8,19.,4.8,2.,4.8,1.,4.8
1979-07-28 21:19:39.860 ,4,0,0.,4.8,15.,4.8,5.,4.8,1.,4.8
1979-07-28 21:19:44.660 ,4,0,0.,4.8,18.,4.8,2.,4.8,0.,4.8
1979-07-28 21:19:49.460 ,4,0,0.,4.8,21.,4.8,5.,4.8,0.,4.8
1979-07-28 21:19:54.260 ,4,0,0.,4.8,17.,4.8,5.,4.8,0.,4.8
1979-07-28 21:19:59.060 ,3,0,0.,4.8,23.,4.8,3.,4.8,2.,4.8
1979-07-28 21:20:03.860 ,3,0,0.,4.8,15.,4.8,3.,4.8,1.,4.8
1979-07-28 21:20:08.660 ,3,0,0.,4.8,63.,4.8,8.,4.8,1.,4.8
1979-07-28 21:20:13.460 ,3,0,0.,4.8,60.,4.8,1.,4.8,2.,4.8
1979-07-28 21:20:18.260 ,3,0,0.,4.8,61.,4.8,5.,4.8,1.,4.8
1979-07-28 21:20:23.060 ,3,0,0.,4.8,48.,4.8,9.,4.8,0.,4.8
1979-07-28 21:20:27.860 ,3,0,0.,4.8,63.,4.8,2.,4.8,0.,4.8
1979-07-28 21:20:32.660 ,3,0,0.,4.8,66.,4.8,6.,4.8,2.,4.8
1979-07-28 21:20:37.460 ,3,0,0.,4.8,62.,4.8,6.,4.8,2.,4.8
1979-07-28 21:20:42.260 ,3,0,0.,4.8,59.,4.8,10.,4.8,1.,4.8
1979-07-28 21:20:47.060 ,2,0,0.,4.8,53.,4.8,6.,4.8,1.,4.8
1979-07-28 21:20:51.860 ,2,0,0.,4.8,62.,4.8,13.,4.8,6.,4.8
1979-07-28 21:20:56.660 ,2,0,0.,4.8,72.,4.8,10.,4.8,1.,4.8
1979-07-28 21:21:01.460 ,2,0,0.,4.8,72.,4.8,7.,4.8,0.,4.8
1979-07-28 21:21:06.260 ,2,0,0.,4.8,68.,4.8,6.,4.8,1.,4.8
1979-07-28 21:21:11.060 ,2,0,0.,4.8,61.,4.8,8.,4.8,2.,4.8
1979-07-28 21:21:15.860 ,2,0,0.,4.8,82.,4.8,8.,4.8,2.,4.8
1979-07-28 21:21:20.660 ,2,0,0.,4.8,80.,4.8,14.,4.8,2.,4.8
1979-07-28 21:21:25.460 ,2,0,0.,4.8,64.,4.8,11.,4.8,0.,4.8
1979-07-28 21:21:30.260 ,2,0,0.,4.8,72.,4.8,8.,4.8,2.,4.8
1979-07-28 21:21:35.060 ,1,0,0.,4.8,61.,4.8,7.,4.8,4.,4.8
1979-07-28 21:21:39.860 ,1,0,0.,4.8,66.,4.8,7.,4.8,1.,4.8
1979-07-28 21:21:44.660 ,1,0,0.,4.8,22.,4.8,2.,4.8,0.,4.8
1979-07-28 21:21:49.460 ,1,0,0.,4.8,32.,4.8,3.,4.8,0.,4.8
1979-07-28 21:21:54.260 ,1,0,0.,4.8,20.,4.8,3.,4.8,1.,4.8
1979-07-28 21:21:59.060 ,1,0,0.,4.8,37.,4.8,3.,4.8,1.,4.8
1979-07-28 21:22:03.860 ,1,0,0.,4.8,22.,4.8,1.,4.8,0.,4.8
1979-07-28 21:22:08.660 ,1,0,0.,4.8,26.,4.8,2.,4.8,2.,4.8
1979-07-28 21:22:13.460 ,1,0,0.,4.8,22.,4.8,4.,4.8,0.,4.8
1979-07-28 21:22:18.260 ,1,0,0.,4.8,30.,4.8,1.,4.8,3.,4.8
1979-07-28 21:22:23.060 ,0,0,0.,4.8,23.,4.8,2.,4.8,0.,4.8
1979-07-28 21:22:27.860 ,0,0,0.,4.8,25.,4.8,2.,4.8,2.,4.8
1979-07-28 21:22:32.660 ,0,0,0.,4.8,13.,4.8,2.,4.8,0.,4.8
1979-07-28 21:22:37.460 ,0,0,0.,4.8,21.,4.8,0.,4.8,0.,4.8
1979-07-28 21:22:42.260 ,0,0,0.,4.8,17.,4.8,1.,4.8,0.,4.8
1979-07-28 21:22:47.060 ,0,0,0.,4.8,21.,4.8,3.,4.8,0.,4.8
1979-07-28 21:22:51.860 ,0,0,0.,4.8,11.,4.8,1.,4.8,0.,4.8
1979-07-28 21:22:56.660 ,0,0,0.,4.8,14.,4.8,2.,4.8,0.,4.8
1979-07-28 21:23:01.460 ,0,0,0.,4.8,11.,4.8,3.,4.8,0.,4.8
1979-07-28 21:23:06.260 ,0,0,0.,4.8,20.,4.8,1.,4.8,0.,4.8
1979-07-28 21:23:11.060 ,0,0,0.,4.8,11.,4.8,2.,4.8,0.,4.8
1979-07-28 21:23:15.860 ,0,0,0.,4.8,22.,4.8,2.,4.8,1.,4.8
1979-07-28 21:23:20.660 ,0,0,0.,4.8,15.,4.8,1.,4.8,0.,4.8
1979-07-28 21:23:25.460 ,0,0,0.,4.8,18.,4.8,0.,4.8,1.,4.8
1979-07-28 21:23:30.260 ,0,0,0.,4.8,15.,4.8,1.,4.8,0.,4.8
1979-07-28 21:23:35.060 ,0,0,0.,4.8,9.,4.8,3.,4.8,0.,4.8
1979-07-28 21:23:39.860 ,0,0,0.,4.8,18.,4.8,4.,4.8,2.,4.8
1979-07-28 21:23:44.660 ,0,0,0.,4.8,16.,4.8,1.,4.8,0.,4.8
1979-07-28 21:23:49.460 ,0,0,0.,4.8,13.,4.8,4.,4.8,0.,4.8
1979-07-28 21:23:54.260 ,0,0,0.,4.8,16.,4.8,1.,4.8,0.,4.8
1979-07-28 21:23:59.060 ,1,0,0.,4.8,13.,4.8,2.,4.8,0.,4.8
1979-07-28 21:24:03.860 ,1,0,0.,4.8,14.,4.8,2.,4.8,0.,4.8
1979-07-28 21:24:08.660 ,1,0,0.,4.8,25.,4.8,2.,4.8,2.,4.8
1979-07-28 21:24:13.460 ,1,0,0.,4.8,27.,4.8,1.,4.8,0.,4.8
1979-07-28 21:24:18.260 ,1,0,0.,4.8,25.,4.8,5.,4.8,1.,4.8
1979-07-28 21:24:23.060 ,1,0,0.,4.8,17.,4.8,5.,4.8,0.,4.8
1979-07-28 21:24:27.860 ,1,0,0.,4.8,39.,4.8,5.,4.8,1.,4.8
1979-07-28 21:24:32.660 ,1,0,0.,4.8,31.,4.8,3.,4.8,2.,4.8
1979-07-28 21:24:37.460 ,1,0,0.,4.8,22.,4.8,3.,4.8,0.,4.8
1979-07-28 21:24:42.260 ,1,0,0.,4.8,29.,4.8,4.,4.8,0.,4.8
1979-07-28 21:24:47.060 ,2,0,0.,4.8,24.,4.8,5.,4.8,1.,4.8
1979-07-28 21:24:51.860 ,2,0,0.,4.8,22.,4.8,1.,4.8,2.,4.8
1979-07-28 21:24:56.660 ,2,0,0.,4.8,64.,4.8,8.,4.8,3.,4.8
1979-07-28 21:25:01.460 ,2,0,0.,4.8,62.,4.8,6.,4.8,2.,4.8
1979-07-28 21:25:06.260 ,2,0,0.,4.8,61.,4.8,4.,4.8,0.,4.8
1979-07-28 21:25:11.060 ,2,0,0.,4.8,68.,4.8,10.,4.8,3.,4.8
1979-07-28 21:25:15.860 ,2,0,0.,4.8,68.,4.8,9.,4.8,4.,4.8
1979-07-28 21:25:20.660 ,2,0,0.,4.8,62.,4.8,15.,4.8,2.,4.8
1979-07-28 21:25:25.460 ,2,0,0.,4.8,76.,4.8,6.,4.8,3.,4.8
1979-07-28 21:25:30.260 ,2,0,0.,4.8,88.,4.8,7.,4.8,2.,4.8
1979-07-28 21:25:35.060 ,3,0,0.,4.8,74.,4.8,5.,4.8,0.,4.8
1979-07-28 21:25:39.860 ,3,0,0.,4.8,63.,4.8,9.,4.8,0.,4.8
1979-07-28 21:25:44.660 ,3,0,0.,4.8,80.,4.8,9.,4.8,1.,4.8
1979-07-28 21:25:49.460 ,3,0,0.,4.8,66.,4.8,8.,4.8,0.,4.8
1979-07-28 21:25:54.260 ,3,0,0.,4.8,72.,4.8,5.,4.8,0.,4.8
1979-07-28 21:25:59.060 ,3,0,0.,4.8,68.,4.8,3.,4.8,0.,4.8
1979-07-28 21:26:03.860 ,3,0,0.,4.8,72.,4.8,13.,4.8,3.,4.8
1979-07-28 21:26:08.660 ,3,0,0.,4.8,74.,4.8,9.,4.8,2.,4.8
1979-07-28 21:26:13.460 ,3,0,0.,4.8,56.,4.8,7.,4.8,1.,4.8
1979-07-28 21:26:18.260 ,3,0,0.,4.8,47.,4.8,9.,4.8,1.,4.8
1979-07-28 21:26:23.060 ,4,0,0.,4.8,59.,4.8,2.,4.8,1.,4.8
1979-07-28 21:26:27.860 ,4,0,0.,4.8,58.,4.8,5.,4.8,2.,4.8
1979-07-28 21:26:32.660 ,4,0,0.,4.8,26.,4.8,4.,4.8,0.,4.8
1979-07-28 21:26:37.460 ,4,0,0.,4.8,23.,4.8,2.,4.8,0.,4.8
1979-07-28 21:26:42.260 ,4,0,0.,4.8,17.,4.8,5.,4.8,0.,4.8
1979-07-28 21:26:47.060 ,4,0,0.,4.8,22.,4.8,4.,4.8,1.,4.8
1979-07-28 21:26:51.860 ,4,0,0.,4.8,23.,4.8,4.,4.8,1.,4.8
1979-07-28 21:26:56.660 ,4,0,0.,4.8,24.,4.8,6.,4.8,0.,4.8
1979-07-28 21:27:01.460 ,4,0,0.,4.8,14.,4.8,1.,4.8,0.,4.8
1979-07-28 21:27:06.260 ,4,0,0.,4.8,18.,4.8,2.,4.8,1.,4.8
1979-07-28 21:27:11.060 ,5,0,0.,4.8,35.,4.8,0.,4.8,1.,4.8
1979-07-28 21:27:15.860 ,5,0,1.,4.8,22.,4.8,5.,4.8,1.,4.8
1979-07-28 21:27:20.660 ,5,0,0.,4.8,16.,4.8,4.,4.8,1.,4.8
1979-07-28 21:27:25.460 ,5,0,0.,4.8,20.,4.8,4.,4.8,0.,4.8
1979-07-28 21:27:30.260 ,5,0,0.,4.8,22.,4.8,3.,4.8,2.,4.8
1979-07-28 21:27:35.060 ,5,0,0.,4.8,22.,4.8,3.,4.8,0.,4.8
1979-07-28 21:27:39.860 ,5,0,0.,4.8,37.,4.8,3.,4.8,3.,4.8
1979-07-28 21:27:44.660 ,5,0,0.,4.8,19.,4.8,2.,4.8,0.,4.8
1979-07-28 21:27:49.460 ,5,0,0.,4.8,19.,4.8,4.,4.8,0.,4.8
1979-07-28 21:27:54.260 ,5,0,0.,4.8,28.,4.8,1.,4.8,0.,4.8
1979-07-28 21:27:59.060 ,6,0,0.,4.8,16.,4.8,1.,4.8,0.,4.8
1979-07-28 21:28:03.860 ,6,0,0.,4.8,26.,4.8,4.,4.8,0.,4.8
1979-07-28 21:28:08.660 ,6,0,0.,4.8,23.,4.8,3.,4.8,0.,4.8
1979-07-28 21:28:13.460 ,6,0,0.,4.8,14.,4.8,3.,4.8,0.,4.8
1979-07-28 21:28:18.260 ,6,0,0.,4.8,18.,4.8,1.,4.8,1.,4.8
1979-07-28 21:28:23.060 ,6,0,0.,4.8,15.,4.8,3.,4.8,0.,4.8
1979-07-28 21:28:27.860 ,6,0,0.,4.8,16.,4.8,1.,4.8,1.,4.8
1979-07-28 21:28:32.660 ,6,0,0.,4.8,21.,4.8,1.,4.8,0.,4.8
1979-07-28 21:28:37.460 ,6,0,0.,4.8,22.,4.8,5.,4.8,1.,4.8
1979-07-28 21:28:42.260 ,6,0,0.,4.8,17.,4.8,1.,4.8,0.,4.8
1979-07-28 21:28:47.060 ,7,0,0.,4.8,15.,4.8,2.,4.8,1.,4.8
1979-07-28 21:28:51.860 ,7,0,0.,4.8,23.,4.8,0.,4.8,0.,4.8
1979-07-28 21:28:56.660 ,7,0,0.,4.8,2.,4.8,0.,4.8,0.,4.8
1979-07-28 21:29:01.460 ,7,0,0.,4.8,0.,4.8,0.,4.8,0.,4.8
1979-07-28 21:29:06.260 ,7,0,0.,4.8,1.,4.8,0.,4.8,0.,4.8
1979-07-28 21:29:11.060 ,7,0,0.,4.8,1.,4.8,0.,4.8,0.,4.8
1979-07-28 21:29:15.860 ,7,0,0.,4.8,2.,4.8,0.,4.8,0.,4.8
1979-07-28 21:29:20.660 ,7,0,0.,4.8,1.,4.8,0.,4.8,0.,4.8
1979-07-28 21:29:25.460 ,7,0,0.,4.8,0.,4.8,0.,4.8,0.,4.8
1979-07-28 21:29:30.260 ,7,0,0.,4.8,0.,4.8,0.,4.8,0.,4.8
1979-07-28 21:29:35.060 ,7,0,0.,4.8,1.,4.8,0.,4.8,1.,4.8
1979-07-28 21:29:39.860 ,7,0,0.,4.8,0.,4.8,0.,4.8,0.,4.8
1979-07-28 21:29:44.660 ,7,0,0.,4.8,1.,4.8,0.,4.8,0.,4.8
1979-07-28 21:29:49.460 ,7,0,0.,4.8,1.,4.8,0.,4.8,0.,4.8
1979-07-28 21:29:54.260 ,7,0,0.,4.8,3.,4.8,0.,4.8,0.,4.8
1979-07-28 21:29:59.060 ,7,0,0.,4.8,2.,4.8,0.,4.8,1.,4.8
1979-07-28 21:30:03.860 ,7,0,0.,4.8,0.,4.8,0.,4.8,0.,4.8
1979-07-28 21:30:08.660 ,7,0,0.,4.8,0.,4.8,0.,4.8,0.,4.8
1979-07-28 21:30:13.460 ,7,0,0.,4.8,1.,4.8,0.,4.8,0.,4.8
1979-07-28 21:30:18.260 ,7,0,0.,4.8,0.,4.8,0.,4.8,0.,4.8
1979-07-28 21:30:23.060 ,6,0,0.,4.8,1.,4.8,0.,4.8,0.,4.8
1979-07-28 21:30:27.860 ,6,0,0.,4.8,0.,4.8,0.,4.8,0.,4.8
1979-07-28 21:30:32.660 ,6,0,0.,4.8,17.,4.8,2.,4.8,0.,4.8
1979-07-28 21:30:37.460 ,6,0,1.,4.8,20.,4.8,3.,4.8,0.,4.8
1979-07-28 21:30:42.260 ,6,0,0.,4.8,20.,4.8,2.,4.8,1.,4.8
1979-07-28 21:30:47.060 ,6,0,0.,4.8,19.,4.8,0.,4.8,1.,4.8
1979-07-28 21:30:51.860 ,6,0,0.,4.8,17.,4.8,3.,4.8,0.,4.8
1979-07-28 21:30:56.660 ,6,0,0.,4.8,17.,4.8,2.,4.8,1.,4.8
1979-07-28 21:31:01.460 ,6,0,0.,4.8,18.,4.8,2.,4.8,0.,4.8
1979-07-28 21:31:06.260 ,6,0,0.,4.8,17.,4.8,1.,4.8,0.,4.8
1979-07-28 21:31:11.060 ,5,0,0.,4.8,27.,4.8,2.,4.8,0.,4.8
1979-07-28 21:31:15.860 ,5,0,0.,4.8,29.,4.8,3.,4.8,1.,4.8
1979-07-28 21:31:20.660 ,5,0,0.,4.8,22.,4.8,3.,4.8,1.,4.8
1979-07-28 21:31:25.460 ,5,0,0.,4.8,27.,4.8,7.,4.8,2.,4.8
1979-07-28 21:31:30.260 ,5,0,0.,4.8,31.,4.8,2.,4.8,0.,4.8
1979-07-28 21:31:35.060 ,5,0,0.,4.8,21.,4.8,3.,4.8,0.,4.8
1979-07-28 21:31:39.860 ,5,0,0.,4.8,29.,4.8,2.,4.8,1.,4.8
1979-07-28 21:31:44.660 ,5,0,0.,4.8,35.,4.8,6.,4.8,0.,4.8
1979-07-28 21:31:49.460 ,5,0,0.,4.8,26.,4.8,2.,4.8,0.,4.8
1979-07-28 21:31:54.260 ,5,0,0.,4.8,28.,4.8,5.,4.8,0.,4.8
1979-07-28 21:31:59.060 ,4,0,0.,4.8,27.,4.8,2.,4.8,2.,4.8
1979-07-28 21:32:03.860 ,4,0,0.,4.8,18.,4.8,5.,4.8,0.,4.8
1979-07-28 21:32:08.660 ,4,0,0.,4.8,25.,4.8,3.,4.8,0.,4.8
1979-07-28 21:32:13.460 ,4,0,0.,4.8,34.,4.8,3.,4.8,0.,4.8
1979-07-28 21:32:18.260 ,4,0,0.,4.8,36.,4.8,6.,4.8,1.,4.8
1979-07-28 21:32:23.060 ,4,0,0.,4.8,26.,4.8,1.,4.8,1.,4.8
1979-07-28 21:32:27.860 ,4,0,0.,4.8,31.,4.8,1.,4.8,2.,4.8
1979-07-28 21:32:32.660 ,4,0,0.,4.8,25.,4.8,4.,4.8,0.,4.8
1979-07-28 21:32:37.460 ,4,0,0.,4.8,32.,4.8,3.,4.8,0.,4.8
1979-07-28 21:32:42.260 ,4,0,0.,4.8,26.,4.8,2.,4.8,1.,4.8
1979-07-28 21:32:47.060 ,3,0,0.,4.8,30.,4.8,7.,4.8,0.,4.8